sat.trackr.live / text

‹ back to catalog

COSMOS 2434 (721)

NORAD 32393 · 2007-065A

PAYLOAD ACTIVE UNKNOWN

§ Identity

Operator
Country
CIS
Launch date
2007-12-25
Launch site
TYMSC
Launch vehicle
Mass (kg)
RCS (m²)
5.01

Purposes: nav

External: N2YO · Heavens-Above · Gunter

§ Orbital elements

Epoch: 2026-05-25T04:02:14.133696Z

Period
675.73 min
Inclination
64.3161°
Eccentricity
0.0001051
Mean motion
2.13101329 rev/d
Perigee alt
19,127.3 km
Apogee alt
19,132.6 km
Semi-major
25,508.1 km
B*
0.0000e+0
RAAN
192.6922°
Arg perigee
357.7939°
Mean anomaly
81.0284°
Rev number
14,328

§ Raw data

COSMOS 2434 (721)1 32393U 07065A   26145.16821914  .00000048  00000+0  00000+0 0  99982 32393  64.3161 192.6922 0001051 357.7939  81.0284  2.13101329143287

JSON: /api/v1/satellites/32393 · /tle

For live sub-satellite position, see the globe view (requires WebGL).

§ Visibility from observer

Set your observer location to see the next 7 days of passes ≥ 10°. The values pass through the URL so the page stays shareable.

No JS? Fill the form by hand. The geolocation button needs JavaScript.